Torna al catalogo

FENGYUN 1C DEB

AttivoLEO
NORAD 31657·DEBRIS·🇨🇳 China

Lanciato May 10, 1999 da Taiyuan Satellite Launch Center

Loading…

Prossimi Passaggi (prossime 24 ore)

TLE

In scadenzaSource: Space-Track

Epoca: Sep 10, 2026, 05:39 UTC

1 31657U 99025CBP 26253.23586788  .00001003  00000-0  67561-3 0  9994
2 31657 102.2119 251.5996 0146152 113.9763 247.6769 13.99138889666598

Traccia FENGYUN 1C DEB in tempo reale con AllMySat

Download on the App Store